Regional Weather Roundup
Issued by NWS

Home | Current Version | Previous Version | Text Only | Print | Product List | Glossary On
Versions: 1 2 3 4 5 6 7 8 9 10 11 12 13 14 15 16 17 18 19 20 21 22 23 24 25 26 27 28 29 30 31 32 33 34 35 36 37 38 39 40 41 42 43 44 45 46 47 48 49 50
000
ASUS43 KTOP 130508
RWRKS

WEATHER ROUNDUP FOR KANSAS
NATIONAL WEATHER SERVICE GOODLAND KS
1100 PM CST FRI FEB 12 2016

NOTE:  "FAIR" INDICATES FEW OR NO CLOUDS BELOW 12,000 FEET WITH NO
SIGNIFICANT WEATHER AND/OR OBSTRUCTIONS TO VISIBILITY.

KSZ001>006-013>018-027>032-041>047-130600-
NORTHWEST KANSAS

CITY           SKY/WX    TMP DP  RH WIND       PRES   REMARKS
GOODLAND       CLOUDY    29  26  89 SE12G24   30.37F WCI  19
HAYS           CLOUDY    28  16  59 E13       30.49F WCI  18
HILL CITY      CLOUDY    27  24  89 E13       30.48S WCI  16
RUSSELL        CLOUDY    27  21  78 E12       30.50S WCI  17
$$

KSZ061>065-074>080-084>089-130600-
SOUTHWEST KANSAS

CITY           SKY/WX    TMP DP  RH WIND       PRES   REMARKS
DODGE CITY     CLEAR     26  22  84 E9        30.44R
ELKHART          N/A     32  21  64 SE15        N/A  WCI  22
GARDEN CITY    CLOUDY    26  23  88 E9        30.40S
GREAT BEND     CLOUDY    28  18  64 E13       30.49F WCI  18
LIBERAL        CLOUDY    32  21  64 E13       30.40R WCI  22
PRATT          CLOUDY    29  21  73 E9        30.48S
$$

KSZ066>073-081>083-090>101-130600-
SOUTHEAST KANSAS

CITY           SKY/WX    TMP DP  RH WIND       PRES   REMARKS
CHANUTE        CLOUDY    30  12  47 N12       30.55R WCI  20
COFFEYVILLE    CLEAR     33  17  51 NE14      30.54R WCI  23
HUTCHINSON     CLOUDY    31  19  61 NE9       30.53S
MEDICINE LODGE   N/A     33  25  72 NE13      30.49S WCI  24
NEWTON         CLOUDY    28  14  54 NE7       30.53S
PARSONS        CLOUDY    32  15  49 NE10      30.55R WCI  24
WICHITA INTL   CLOUDY    33  20  58 NE14      30.52R WCI  23
WICHITA JABRA  CLOUDY    31  18  58 NE12G21   30.52S WCI  22
WICHITA MCCONL CLOUDY    32  19  58 NE15      30.52R WCI  22
WINFIELD       CLOUDY    35  20  54 NE14      30.52R WCI  26
$$

KSZ007>012-019>026-033>040-048>060-102>105-130600-
NORTHEAST KANSAS

CITY           SKY/WX    TMP DP  RH WIND       PRES   REMARKS
CONCORDIA      CLOUDY    23  14  68 E9        30.56F
EMPORIA        CLOUDY    26   9  48 NE16      30.54F WCI  14
LAWRENCE       CLOUDY    22   4  46 N9        30.60S
MANHATTAN      CLOUDY    25  13  60 NE12      30.60R WCI  14
MARYSVILLE     CLOUDY    21  10  63 NE8       30.59F
OLATHE IND     CLOUDY    22   6  50 N12       30.58S WCI  10
OLATHE EXE     CLOUDY    22   6  50 N10       30.57S WCI  11
SALINA         CLOUDY    29  12  49 NE14      30.56S WCI  18
TOPEKA BILLARD CLOUDY    23   8  52 N12       30.62R WCI  12
TOPEKA FORBES  CLOUDY    24   8  50 NE12      30.58F WCI  13
$$



USA.gov is the U.S. government's official web portal to all federal, state and local government web resources and services.